Location: Wallasey
(53.4265°N, 3.0662°W)
Time: 00:22:13
(UTC+01:00)

NOAA 18 - Pass Details

Date: 26 September 2019
Orbit: 841 x 861 km, 99.1° (Epoch: 14 October)

Event Time Altitude Azimuth Distance (km) Brightness Sun altitude
Exits shadow 22:08:18 21° 210° (SSW) 1,844 6.8 -26.7°
Maximum altitude 22:11:24 37° 264° (W) 1,319 6.5 -27.1°
Drops below altitude 10° 22:16:33 10° 331° (NNW) 2,512 8.5 -27.6°
Sets 22:19:09 0° 340° (NNW) 3,454 9.3 -27.9°
